Powrót do katalogu

STARLINK-34619

AktywnyŁącznośćVLEO
NORAD 64737·PAYLOAD·🇺🇸 United States

Wystrzelony Jul 2, 2025 z Cape Canaveral Space Force Station

Loading…

Następne Przeloty (najbliższe 24 godziny)

TLE

ŚwieżeSource: CelesTrak SupGP

Epoka: Sep 14, 2026, 21:21 UTC

1 64737C 25144P   26257.89006944  .00027182  00000+0  80335-3 0  2573
2 64737  53.1598  21.6496 0001274  77.9507  57.8739 15.34367058    19

Śledź STARLINK-34619 w czasie rzeczywistym z AllMySat

Download on the App Store